CW8490 Weather Reports


Display with metric or nautical units.
time (UTC)temp
F
wind
direction
speed
MPH
gust
MPH
rain 1hr
in
rain 24hr
in
rain mn
in
humidity
%
barometer
mb
20260506051216 47 0 4.0 5.0 0.01 1.09 0.00 90 1013.9
20260506050257 47 0 2.0 3.0 0.01 1.09 0.00 95 1013.7
20260506044216 47 248 2.0 4.0 0.00 1.08 1.08 95 1013.3
20260506043215 47 293 1.0 2.0 0.00 1.08 1.08 95 1013.1
20260506042216 47 0.0 1.0 0.00 1.08 1.08 95 1012.8
20260506041215 47 0.0 0.0 0.00 1.08 1.08 95 1013.0
20260506040215 47 0.0 0.0 0.00 1.08 1.08 95 1013.0
20260506035216 46 0.0 0.0 0.00 1.08 1.08 95 1013.0
20260506034216 46 0.0 0.0 0.00 1.08 1.08 94 1012.7
20260506033215 46 203 2.0 2.0 0.00 1.08 1.08 94 1012.7
20260506032216 46 0.0 1.0 0.00 1.08 1.08 94 1012.6
20260506031216 46 0.0 0.0 0.00 1.08 1.08 94 1012.4
20260506030216 46 0.0 0.0 0.00 1.08 1.08 94 1012.3
20260506025216 46 0.0 0.0 0.00 1.08 1.08 94 1012.0
20260506024216 46 0.0 0.0 0.00 1.08 1.08 94 1011.7
20260506023216 46 0.0 0.0 0.00 1.08 1.08 93 1011.6
20260506022216 46 0.0 0.0 0.00 1.08 1.08 93 1011.5
20260506021216 46 0.0 0.0 0.00 1.08 1.08 93 1011.4
20260506020236 46 0.0 0.0 0.00 1.08 1.08 92 1011.1
20260506015216 47 0.0 0.0 0.00 1.08 1.08 92 1011.0
20260506014216 47 0.0 0.0 0.00 1.08 1.08 92 1011.0
20260506013216 48 0.0 1.0 0.00 1.08 1.08 92 1011.1
20260506012236 48 203 1.0 1.0 0.00 1.08 1.08 92 1010.9
20260506011236 48 0.0 1.0 0.00 1.08 1.08 92 1010.8
20260506010236 48 158 1.0 1.0 0.00 1.08 1.08 92 1010.7
20260506005216 48 0.0 1.0 0.00 1.08 1.08 91 1010.9
20260506004216 48 0.0 0.0 0.00 1.08 1.08 91 1011.0
20260506003216 48 203 1.0 1.0 0.00 1.08 1.08 91 1010.5
20260506002216 49 203 1.0 2.0 0.00 1.08 1.08 91 1010.3
20260506001216 49 180 1.0 1.0 0.00 1.08 1.08 90 1010.3
20260506000216 49 203 1.0 1.0 0.00 1.08 1.08 91 1010.0
20260505235216 49 203 1.0 2.0 0.00 1.08 1.08 90 1010.2
20260505234216 49 158 2.0 3.0 0.00 1.08 1.08 90 1010.2
20260505233216 49 225 1.0 2.0 0.00 1.08 1.08 90 1010.6
20260505232259 49 0.0 0.0 0.00 1.08 1.08 89 1010.5
20260505231716 50 225 2.0 2.0 0.00 1.08 1.08 88 1010.6
20260505230716 50 158 2.0 2.0 0.00 1.08 1.08 88 1010.6
20260505225736 50 0.0 1.0 0.00 1.08 1.08 86 1010.3
20260505224736 50 0.0 0.0 0.00 1.08 1.08 86 1010.4
20260505223716 51 0.0 0.0 0.00 1.08 1.08 85 1010.3
20260505222716 51 0.0 1.0 0.00 1.08 1.08 86 1010.5
20260505221716 51 0.0 0.0 0.00 1.08 1.08 86 1010.5
20260505220756 51 0.0 0.0 0.00 1.08 1.08 87 1010.4
20260505215716 50 0.0 0.0 0.00 1.08 1.08 88 1010.6
20260505214716 50 0.0 0.0 0.00 1.08 1.08 90 1010.2
20260505213716 49 0.0 1.0 0.00 1.08 1.08 90 1010.3
20260505212716 49 0.0 0.0 0.00 1.08 1.08 91 1010.3
20260505211716 48 0.0 0.0 0.01 1.08 1.08 90 1010.5
20260505210716 48 0.0 0.0 0.01 1.08 1.08 91 1010.4
20260505205716 48 0.0 1.0 0.02 1.08 1.08 91 1010.5
20260505204743 47 0.0 0.0 0.03 1.08 1.08 91 1010.5
20260505203816 47 180 1.0 2.0 0.04 1.08 1.08 91 1010.4
20260505202816 47 158 1.0 2.0 0.05 1.08 1.08 92 1010.5
20260505201836 46 248 1.0 3.0 0.05 1.07 1.07 92 1010.6
20260505200836 46 113 1.0 3.0 0.06 1.07 1.07 91 1010.0
20260505195816 46 90 3.0 4.0 0.06 1.06 1.06 91 1009.9
20260505194816 46 113 1.0 1.0 0.05 1.05 1.05 92 1010.5
20260505193816 46 0.0 1.0 0.06 1.04 1.04 92 1010.5
20260505192816 46 135 1.0 1.0 0.07 1.03 1.03 91 1010.5
20260505191816 45 113 2.0 4.0 0.07 1.02 1.02 91 1010.3
20260505190816 45 0.0 1.0 0.06 1.01 1.01 92 1010.7
20260505185816 45 45 1.0 2.0 0.05 1.00 1.00 92 1010.4
20260505184816 45 113 1.0 2.0 0.05 1.00 1.00 92 1010.8
20260505183816 45 135 1.0 1.0 0.05 0.98 0.98 92 1011.1
20260505182816 45 68 1.0 3.0 0.05 0.96 0.96 92 1010.7
20260505181816 45 0.0 1.0 0.06 0.95 0.95 92 1011.4
20260505180816 45 0.0 1.0 0.07 0.95 0.95 93 1011.4
20260505175816 45 23 2.0 3.0 0.10 0.95 0.95 92 1011.6
20260505174816 45 45 1.0 2.0 0.13 0.95 0.95 92 1011.5
20260505173816 45 68 3.0 5.0 0.13 0.93 0.93 91 1011.0
20260505172816 45 90 3.0 4.0 0.11 0.91 0.91 90 1011.5
20260505171816 45 113 4.0 6.0 0.09 0.89 0.89 90 1011.5
20260505170816 45 90 2.0 5.0 0.09 0.88 0.88 90 1011.6
20260505165837 46 0.0 1.0 0.07 0.85 0.85 90 1011.6
20260505164817 46 45 2.0 3.0 0.05 0.82 0.82 91 1011.2
20260505163817 47 23 2.0 3.0 0.03 0.80 0.80 92 1012.0
20260505162816 47 23 3.0 3.0 0.05 0.80 0.80 92 1011.7
20260505161817 47 0 1.0 2.0 0.05 0.80 0.80 92 1011.7
20260505160816 47 23 2.0 2.0 0.04 0.79 0.79 90 1011.5
20260505153016 48 45 1.0 2.0 0.05 0.75 0.75 90 1010.7
20260505152016 48 23 2.0 3.0 0.06 0.75 0.75 90 1010.9
20260505151016 49 45 2.0 3.0 0.08 0.75 0.75 91 1011.1
20260505140417 48 0 2.0 3.0 0.03 0.67 0.67 89 1010.7
20260505124437 49 68 6.0 8.0 0.01 0.64 0.64 85 1008.6
20260505123417 49 45 2.0 5.0 0.00 0.63 0.63 87 1009.0
20260505122417 48 23 1.0 2.0 0.00 0.63 0.63 88 1009.0
20260505121417 48 0.0 0.0 0.00 0.63 0.63 90 1008.8
20260505120417 48 113 1.0 2.0 0.01 0.63 0.63 89 1008.4
20260505115540 48 23 2.0 2.0 0.02 0.63 0.63 90 1008.7
20260505114817 48 0.0 1.0 0.02 0.63 0.63 90 1008.8
20260505113817 48 0.0 1.0 0.02 0.63 0.63 90 1008.6
20260505112817 48 90 1.0 2.0 0.02 0.63 0.63 90 1008.2
20260505111817 48 90 5.0 7.0 0.02 0.63 0.63 89 1008.1
20260505110817 48 90 3.0 6.0 0.01 0.62 0.62 89 1008.3
20260505101817 47 23 3.0 5.0 0.00 0.61 0.61 95 1008.1
20260505100817 47 23 4.0 5.0 0.00 0.61 0.61 95 1007.9
20260505095817 47 23 3.0 5.0 0.00 0.61 0.61 95 1008.0
20260505094857 47 23 5.0 7.0 0.00 0.61 0.61 95 1007.4
20260505093817 47 23 4.0 6.0 0.00 0.61 0.61 95 1007.1
20260505092817 47 45 4.0 7.0 0.04 0.61 0.61 95 1007.3
20260505091817 47 23 4.0 5.0 0.10 0.61 0.61 95 1007.5
20260505090817 47 0 3.0 4.0 0.15 0.61 0.61 95 1006.9
20260505085817 47 0 5.0 9.0 0.19 0.61 0.61 95 1005.1
20260505084817 47 45 6.0 18.0 0.24 0.61 0.61 95 1004.2
20260505083817 48 68 7.0 8.0 0.26 0.61 0.61 95 1004.9
20260505082817 48 45 5.0 6.0 0.24 0.57 0.57 95 1007.3
20260505081817 49 23 2.0 4.0 0.20 0.51 0.51 95 1007.7
20260505080817 49 23 2.0 2.0 0.17 0.46 0.46 95 1008.8
20260505075817 49 0.0 0.0 0.25 0.42 0.42 95 1009.3
20260505074914 50 0.0 0.0 0.24 0.37 0.37 94 1008.7
20260505074815 50 0.0 0.0 0.24 0.37 0.37 94 1008.6
20260505073717 50 0 3.0 3.0 0.33 0.35 0.35 93 1007.0
20260505072737 50 23 1.0 2.0 0.31 0.33 0.33 93 1006.6
20260505071715 51 0 3.0 3.0 0.30 0.31 0.31 91 1006.6
20260505070715 53 0 4.0 5.0 0.27 0.28 0.28 88 1006.3
20260505065715 55 0.0 1.0 0.16 0.16 0.16 88 1006.6
20260505064715 57 0 3.0 3.0 0.13 0.13 0.13 85 1005.3
20260505063715 58 23 4.0 5.0 0.02 0.02 0.02 82 1005.2
20260505062715 58 23 3.0 3.0 0.02 0.02 0.02 81 1005.0
20260505061715 58 23 4.0 5.0 0.01 0.01 0.01 80 1004.7
20260505060715 61 23 6.0 9.0 0.01 0.01 0.01 76 1004.6
20260505055806 66 0.0 0.0 0.00 0.00 0.00 60 1004.2
20260505055644 66 0.0 0.0 0.00 0.00 0.00 60 1004.3
20260505055504 66 0.0 0.0 0.00 0.00 0.00 60 1004.2
20260505055115 67 23 7.0 10.0 0.00 0.00 0.00 58 1004.3